• In Denmark
  • List of Countries
  • For 7 days
  • Water Temperature
  • Satellite Maps
  • Weather Map
  • Weather Widgets
  • user-avatar
    Login

    Hourly Weather Tuzla

    Today, 16 October, Tuesday

    Time Temperature Precipitation Wind Pressure Humidity
    00:00 +12°C° 0 mm 1 mps 725 mmHg 71%
    01:00 +12°C° 0 mm 1 mps 725 mmHg 73%
    02:00 +11°C° 0 mm 1 mps 725 mmHg 74%
    03:00 +11°C° 0 mm 1 mps 725 mmHg 75%
    04:00 +11°C° 0 mm 1 mps 725 mmHg 76%
    05:00 +12°C° 0 mm 1 mps 725 mmHg 75%
    06:00 +12°C° 0 mm 1 mps 725 mmHg 74%
    07:00 +13°C° 0 mm 1 mps 725 mmHg 69%
    08:00 +16°C° 0 mm 1 mps 726 mmHg 61%
    09:00 +20°C° 0 mm 1 mps 726 mmHg 54%
    10:00 +22°C° 0 mm 1 mps 726 mmHg 46%
    11:00 +23°C° 0 mm 1 mps 726 mmHg 44%
    12:00 +24°C° 0 mm 1 mps 726 mmHg 42%
    13:00 +24°C° 0 mm 1 mps 726 mmHg 41%
    14:00 +24°C° 0 mm 1 mps 726 mmHg 44%
    15:00 +23°C° 0 mm 1 mps 725 mmHg 48%
    16:00 +22°C° 0 mm 1 mps 725 mmHg 52%
    17:00 +20°C° 0 mm 1 mps 725 mmHg 57%
    18:00 +18°C° 0 mm 1 mps 725 mmHg 62%
    19:00 +14°C° 0 mm 0 mps 725 mmHg 68%
    20:00 +14°C° 0 mm 0 mps 725 mmHg 69%
    21:00 +13°C° 0 mm 0 mps 725 mmHg 70%
    22:00 +13°C° 0 mm 0 mps 725 mmHg 71%
    23:00 +13°C° 0 mm 1 mps 725 mmHg 73%

    Tomorrow, 17 October, Wednesday

    Time Temperature Precipitation Wind Pressure Humidity
    00:00 +13°C° 0 mm 1 mps 725 mmHg 75%
    01:00 +13°C° 0 mm 1 mps 725 mmHg 76%
    02:00 +12°C° 0 mm 1 mps 725 mmHg 77%
    03:00 +12°C° 0 mm 1 mps 724 mmHg 79%
    04:00 +12°C° 0 mm 1 mps 724 mmHg 80%
    05:00 +11°C° 0 mm 0 mps 724 mmHg 78%
    06:00 +12°C° 0 mm 0 mps 724 mmHg 77%
    07:00 +12°C° 0 mm 0 mps 724 mmHg 75%
    08:00 +15°C° 0 mm 0 mps 724 mmHg 66%
    09:00 +19°C° 0 mm 1 mps 725 mmHg 57%
    10:00 +22°C° 0 mm 1 mps 725 mmHg 48%
    11:00 +23°C° 0 mm 1 mps 724 mmHg 46%
    12:00 +24°C° 0 mm 1 mps 724 mmHg 43%
    13:00 +24°C° 0 mm 2 mps 724 mmHg 41%
    14:00 +23°C° 0 mm 2 mps 724 mmHg 44%
    15:00 +21°C° 0 mm 2 mps 723 mmHg 48%
    16:00 +22°C° 0 mm 1 mps 723 mmHg 51%
    17:00 +20°C° 0 mm 1 mps 723 mmHg 57%
    18:00 +16°C° 0 mm 1 mps 723 mmHg 63%
    19:00 +13°C° 0 mm 0 mps 723 mmHg 68%
    20:00 +13°C° 0 mm 0 mps 723 mmHg 70%
    21:00 +12°C° 0 mm 0 mps 723 mmHg 71%
    22:00 +13°C° 0 mm 1 mps 723 mmHg 73%
    23:00 +13°C° 0 mm 1 mps 723 mmHg 74%

    Day after tomorrow, 18 October, Thursday

    Time Temperature Precipitation Wind Pressure Humidity
    00:00 +12°C° 0 mm 1 mps 723 mmHg 76%
    01:00 +12°C° 0 mm 1 mps 723 mmHg 77%
    02:00 +12°C° 0 mm 1 mps 722 mmHg 79%
    03:00 +11°C° 0 mm 1 mps 722 mmHg 80%
    04:00 +11°C° 0 mm 1 mps 722 mmHg 82%
    05:00 +11°C° 0 mm 1 mps 722 mmHg 81%
    06:00 +11°C° 0 mm 0 mps 722 mmHg 79%
    07:00 +11°C° 0 mm 0 mps 722 mmHg 78%
    08:00 +15°C° 0 mm 1 mps 723 mmHg 68%
    09:00 +19°C° 0 mm 1 mps 723 mmHg 58%
    10:00 +21°C° 0 mm 1 mps 723 mmHg 48%
    11:00 +22°C° 0 mm 1 mps 723 mmHg 46%
    12:00 +23°C° 0 mm 1 mps 723 mmHg 43%
    13:00 +23°C° 0 mm 2 mps 722 mmHg 41%
    14:00 +22°C° 0 mm 1 mps 722 mmHg 45%
    15:00 +22°C° 0 mm 1 mps 722 mmHg 48%
    16:00 +21°C° 0 mm 1 mps 722 mmHg 52%
    17:00 +19°C° 0 mm 1 mps 722 mmHg 58%
    18:00 +16°C° 0 mm 1 mps 722 mmHg 64%
    19:00 +13°C° 0 mm 0 mps 722 mmHg 71%
    20:00 +12°C° 0 mm 0 mps 723 mmHg 72%
    21:00 +12°C° 0 mm 0 mps 723 mmHg 73%
    22:00 +12°C° 0 mm 0 mps 723 mmHg 74%
    23:00 +12°C° 0 mm 0 mps 723 mmHg 74%

    19 October, Friday

    Time Temperature Precipitation Wind Pressure Humidity
    00:00 +11°C° 0 mm 0 mps 723 mmHg 75%
    01:00 +11°C° 0 mm 0 mps 723 mmHg 75%
    02:00 +11°C° 0 mm 0 mps 723 mmHg 76%
    03:00 +11°C° 0 mm 0 mps 723 mmHg 76%
    04:00 +11°C° 0 mm 0 mps 723 mmHg 76%
    05:00 +11°C° 0 mm 0 mps 723 mmHg 75%
    06:00 +12°C° 0 mm 0 mps 723 mmHg 75%
    07:00 +12°C° 0 mm 0 mps 724 mmHg 74%
    08:00 +15°C° 0 mm 1 mps 724 mmHg 66%
    09:00 +18°C° 0 mm 1 mps 724 mmHg 59%
    10:00 +20°C° 0 mm 1 mps 724 mmHg 51%
    11:00 +21°C° 0 mm 1 mps 724 mmHg 49%
    12:00 +20°C° 0 mm 2 mps 724 mmHg 48%
    13:00 +21°C° 0 mm 2 mps 724 mmHg 46%
    14:00 +20°C° 0 mm 2 mps 724 mmHg 49%
    15:00 +20°C° 0 mm 2 mps 724 mmHg 52%
    16:00 +20°C° 0 mm 1 mps 724 mmHg 54%
    17:00 +18°C° 0 mm 1 mps 724 mmHg 61%
    18:00 +15°C° 0 mm 1 mps 724 mmHg 67%
    19:00 +13°C° 0 mm 1 mps 724 mmHg 73%
    20:00 +13°C° 0 mm 1 mps 724 mmHg 75%
    21:00 +12°C° 0 mm 1 mps 725 mmHg 76%
    22:00 +12°C° 0 mm 1 mps 725 mmHg 78%
    23:00 +12°C° 0 mm 1 mps 725 mmHg 79%

    20 October, Saturday

    Time Temperature Precipitation Wind Pressure Humidity
    00:00 +11°C° 0 mm 1 mps 725 mmHg 81%
    01:00 +11°C° 0 mm 1 mps 725 mmHg 82%
    02:00 +11°C° 0 mm 1 mps 725 mmHg 84%
    03:00 +10°C° 0 mm 1 mps 725 mmHg 85%
    04:00 +10°C° 0 mm 1 mps 725 mmHg 86%
    05:00 +10°C° 0 mm 1 mps 725 mmHg 85%
    06:00 +10°C° 0 mm 1 mps 726 mmHg 84%
    07:00 +11°C° 0 mm 1 mps 726 mmHg 83%
    08:00 +13°C° 0 mm 1 mps 726 mmHg 73%
    09:00 +15°C° 0 mm 1 mps 727 mmHg 63%
    10:00 +19°C° 0 mm 1 mps 727 mmHg 54%
    11:00 +18°C° 0 mm 2 mps 727 mmHg 52%
    12:00 +19°C° 0 mm 2 mps 727 mmHg 50%
    13:00 +19°C° 0 mm 2 mps 727 mmHg 48%
    14:00 +19°C° 0 mm 2 mps 727 mmHg 51%
    15:00 +18°C° 0 mm 2 mps 726 mmHg 55%
    16:00 +18°C° 0 mm 1 mps 726 mmHg 58%
    17:00 +16°C° 0 mm 1 mps 726 mmHg 65%
    18:00 +14°C° 0 mm 1 mps 727 mmHg 72%
    19:00 +12°C° 0 mm 1 mps 727 mmHg 78%
    20:00 +12°C° 0 mm 1 mps 727 mmHg 79%
    21:00 +12°C° 0 mm 1 mps 727 mmHg 79%
    22:00 +11°C° 0 mm 0 mps 727 mmHg 80%
    23:00 +12°C° 0 mm 1 mps 727 mmHg 80%

    21 October, Sunday

    Time Temperature Precipitation Wind Pressure Humidity
    00:00 +12°C° 0 mm 1 mps 727 mmHg 81%
    01:00 +11°C° 0 mm 1 mps 727 mmHg 82%
    02:00 +11°C° 0 mm 1 mps 727 mmHg 83%
    03:00 +11°C° 0 mm 1 mps 727 mmHg 84%
    04:00 +11°C° 0 mm 1 mps 727 mmHg 85%
    05:00 +11°C° 0 mm 1 mps 727 mmHg 86%
    06:00 +11°C° 0 mm 1 mps 727 mmHg 86%
    07:00 +11°C° 0 mm 1 mps 727 mmHg 86%
    08:00 +12°C° 0 mm 1 mps 727 mmHg 79%
    09:00 +13°C° 0 mm 2 mps 727 mmHg 71%
    10:00 +15°C° 0 mm 2 mps 727 mmHg 64%
    11:00 +15°C° 0 mm 2 mps 727 mmHg 62%
    12:00 +14°C° 0 mm 3 mps 726 mmHg 60%
    13:00 +14°C° 0 mm 3 mps 726 mmHg 58%
    14:00 +14°C° 0 mm 3 mps 726 mmHg 60%
    15:00 +13°C° 0 mm 3 mps 725 mmHg 63%
    16:00 +13°C° 0 mm 2 mps 725 mmHg 66%
    17:00 +12°C° 0.1 mm 2 mps 725 mmHg 72%
    18:00 +11°C° 0.1 mm 1 mps 725 mmHg 77%
    19:00 +10°C° 0.1 mm 1 mps 725 mmHg 83%
    20:00 +10°C° 0.1 mm 1 mps 725 mmHg 84%
    21:00 +9°C° 0.1 mm 1 mps 725 mmHg 85%
    22:00 +9°C° 0.1 mm 1 mps 725 mmHg 86%
    23:00 +9°C° 0.1 mm 1 mps 725 mmHg 89%
    Show more